Weather History for KTVL - May, 2014

Change the Weather History Date:

Tuesday, May 13, 2014

  Actual Average Record
Temperature  
Mean Temperature 50 °F 47 °F  
Max Temperature 70 °F 63 °F 78 °F (1988)
Min Temperature 30 °F 32 °F 23 °F (1943)
Degree Days  
Heating Degree Days 15 18  
Month to date heating degree days 228 251  
Since 1 July heating degree days 6269 7141  
Cooling Degree Days 0 0  
Month to date cooling degree days 0 0  
Year to date cooling degree days 0 0  
Moisture  
Dew Point 21 °F    
Average Humidity 40    
Maximum Humidity 69    
Minimum Humidity 11    
Precipitation  
Precipitation 0.00 in - 0.25 in (1941)
Month to date precipitation 0.25  
Year to date precipitation 11.35  
Sea Level Pressure  
Sea Level Pressure 30.29 in    
Wind  
Wind Speed 5 mph (South)    
Max Wind Speed 12 mph    
Max Gust Speed 20 mph    
Visibility 10 miles    
Events      
T = Trace of Precipitation, MM = Missing Value Source: NWS Daily Summary

Daily Weather History Graph

Daily Weather History Graph

Search for Another Location

Airport or City:

Trip Planner

Search our weather history database for the weather conditions in past years. The results will help you decide how hot, cold, wet, or windy it might be!

Date:

Astronomy

May. 13, 2014 Rise Set
Actual Time 5:49 AM PDT 8:04 PM PDT
Civil Twilight 5:19 AM PDT 8:33 PM PDT
Nautical Twilight 4:42 AM PDT 9:10 PM PDT
Astronomical Twilight 4:02 AM PDT 9:51 PM PDT
Moon 7:11 PM PDT (5/13) 5:08 AM PDT (5/13)
Length of Visible Light 15h 14m
Length of Day
14h 14m
Waxing Gibbous, 99% of the Moon is Illuminated
May 13
Waxing Gibbous
May 14
Full
May 21
Last Quarter
May 28
New
Jun 5
First Quarter

Hourly Weather History & Observations

Time (PDT) Temp. Windchill Dew Point Humidity Pressure Visibility Wind Dir Wind Speed Gust Speed Precip Events Conditions
12:53 AM 42.1 °F 37.1 °F 21.9 °F 45% 30.26 in 10.0 mi South 8.1 mph - N/A   Clear
1:53 AM 37.9 °F 33.5 °F 24.1 °F 57% 30.27 in 10.0 mi South 5.8 mph - N/A   Clear
2:53 AM 36.0 °F 31.1 °F 23.0 °F 59% 30.27 in 10.0 mi South 5.8 mph - N/A   Clear
3:53 AM 33.1 °F 30.0 °F 23.0 °F 66% 30.29 in 10.0 mi South 3.5 mph - N/A   Clear
4:53 AM 30.9 °F - 21.9 °F 69% 30.30 in 10.0 mi Calm Calm - N/A   Clear
6:53 AM 33.1 °F 30.0 °F 23.0 °F 66% 30.34 in 10.0 mi South 3.5 mph - N/A   Clear
7:53 AM 44.1 °F - 26.1 °F 49% 30.33 in 10.0 mi Calm Calm - N/A   Clear
9:53 AM 60.1 °F - 19.9 °F 21% 30.27 in 10.0 mi Variable 3.5 mph - N/A   Clear
10:53 AM 63.0 °F - 19.9 °F 19% 30.27 in 10.0 mi Variable 4.6 mph - N/A   Clear
11:53 AM 64.0 °F - 17.1 °F 16% 30.27 in 10.0 mi Variable 4.6 mph - N/A   Clear
12:53 PM 64.9 °F - 19.0 °F 17% 30.30 in 10.0 mi Variable 4.6 mph - N/A   Clear
1:53 PM 68.0 °F - 16.0 °F 14% 30.30 in 10.0 mi Variable 3.5 mph - N/A   Clear
2:53 PM 68.0 °F - 15.1 °F 13% 30.29 in 10.0 mi NNE 8.1 mph - N/A   Clear
3:53 PM 68.0 °F - 12.9 °F 12% 30.29 in 10.0 mi Variable 3.5 mph - N/A   Clear
4:53 PM 68.0 °F - 14.0 °F 12% 30.29 in 10.0 mi North 5.8 mph - N/A   Clear
5:53 PM 68.0 °F - 16.0 °F 14% 30.29 in 10.0 mi NNE 5.8 mph - N/A   Clear
6:53 PM 62.1 °F - 23.0 °F 22% 30.29 in 10.0 mi North 3.5 mph - N/A   Clear
7:53 PM 55.9 °F - 24.1 °F 29% 30.28 in 10.0 mi Calm Calm - N/A   Clear
8:53 PM 51.1 °F - 23.0 °F 33% 30.29 in 10.0 mi Calm Calm - N/A   Clear
9:53 PM 48.0 °F - 26.1 °F 42% 30.31 in 10.0 mi SSW 3.5 mph - N/A   Clear
10:53 PM 44.1 °F - 28.0 °F 53% 30.33 in 10.0 mi Calm Calm - N/A   Clear
11:53 PM 42.1 °F 40.2 °F 27.0 °F 55% 30.33 in 10.0 mi Variable 3.5 mph - N/A   Clear